TimeEDT,TemperatureF,Dew PointF,Humidity,Sea Level PressureIn,VisibilityMPH,Wind Direction,Wind SpeedMPH,Gust SpeedMPH,PrecipitationIn,Events,Conditions,WindDirDegrees,DateUTC
12:56 AM,38.8,32.9,79,30.34,10.0,SSE,6.9,-,N/A,,Clear,150,2011-11-02 04:56:00
1:56 AM,39.9,32.9,76,30.34,10.0,SSE,4.6,-,N/A,,Clear,150,2011-11-02 05:56:00
2:56 AM,34.9,32.0,89,30.34,10.0,Calm,Calm,-,N/A,,Clear,0,2011-11-02 06:56:00
3:56 AM,36.9,32.9,86,30.34,10.0,SE,4.6,-,N/A,,Clear,130,2011-11-02 07:56:00
4:56 AM,32.0,30.0,92,30.35,10.0,East,4.6,-,N/A,,Clear,100,2011-11-02 08:56:00
5:56 AM,31.1,30.0,96,30.36,7.0,East,5.8,-,N/A,,Clear,80,2011-11-02 09:56:00
6:56 AM,31.1,30.0,96,30.37,10.0,East,5.8,-,N/A,,Clear,80,2011-11-02 10:56:00
8:56 AM,37.9,32.9,82,30.38,10.0,East,4.6,-,N/A,,Clear,100,2011-11-02 12:56:00
9:56 AM,46.9,36.9,68,30.36,10.0,SSE,6.9,-,N/A,,Clear,160,2011-11-02 13:56:00
10:56 AM,50.9,36.9,59,30.35,10.0,South,9.2,-,N/A,,Clear,180,2011-11-02 14:56:00
11:56 AM,54.9,37.9,53,30.33,10.0,South,6.9,-,N/A,,Clear,190,2011-11-02 15:56:00
12:56 PM,57.9,37.9,47,30.30,10.0,SW,10.4,-,N/A,,Clear,220,2011-11-02 16:56:00
1:56 PM,59.9,36.9,42,30.27,10.0,SW,10.4,-,N/A,,Clear,220,2011-11-02 17:56:00
2:56 PM,59.9,34.9,39,30.25,10.0,South,9.2,-,N/A,,Clear,190,2011-11-02 18:56:00
3:56 PM,59.9,36.0,41,30.23,10.0,SSE,9.2,-,N/A,,Clear,160,2011-11-02 19:56:00
4:56 PM,59.0,36.9,44,30.24,10.0,South,6.9,-,N/A,,Clear,170,2011-11-02 20:56:00
5:56 PM,52.9,36.0,53,30.25,10.0,SSE,6.9,-,N/A,,Clear,150,2011-11-02 21:56:00
6:56 PM,50.0,34.9,56,30.23,10.0,SSE,8.1,-,N/A,,Clear,160,2011-11-02 22:56:00
7:56 PM,50.0,34.9,56,30.23,10.0,South,9.2,-,N/A,,Clear,170,2011-11-02 23:56:00
8:56 PM,48.9,34.9,58,30.22,10.0,South,9.2,-,N/A,,Clear,180,2011-11-03 00:56:00
9:56 PM,46.9,36.0,66,30.21,10.0,SSE,10.4,-,N/A,,Clear,160,2011-11-03 01:56:00
10:56 PM,45.9,36.9,71,30.19,10.0,SSE,6.9,-,N/A,,Clear,160,2011-11-03 02:56:00
11:56 PM,45.0,36.9,73,30.17,10.0,SSE,9.2,-,N/A,,Clear,160,2011-11-03 03:56:00